轨道通信卫星FM40星 (ORBCOMM FM40)

导读

ORBCOMM FM 40是ORBCOMM低轨卫星通信星座中的成员,于2008年6月19日发射,归属ORB。ORBCOMM系统是全球低成本双向窄带数据通信与定位服务系统,卫星多为轻量化微小卫星,单星重量不足50kg。该卫星服务于交通运输、油气开发、环保渔业等领域,可填补偏远地区地面通信空白,为资产监控、远程数据传输提供支持,是全球物联网卫星通信网络的重要组成部分。

Basic Information
目录编号:
33065
目录名称:
ORBCOMM FM 40
国际标识:
2008-031F
轨道中心:
EARTH
卫星名称:
轨道通信卫星FM40星
卫星全名:
轨道通信卫星FM40星 (ORBCOMM FM40)
卫星状态:
在轨 (已飞行6662 天)
发射日期:
2008-06-19 UTC
国别 :
(ORB)
星等 :
--
This satellite is enrolled in the Space Conjunction Data Service (SCDS) and the current flight risk assessment level is: No High Risk
Orbit Information
数据来源 国际轨道数据 AOE轨道数据
星历时间 2026-09-15T20:18:37+0800
11小时前
查看轨道信息
2026-09-15T07:00:00+0800
1天前
查看轨道信息
半长轴 6993.853km 6993.87km
偏心率 0.0006235 0.000591
轨道倾角 48.442° 48.441°
近地点辐角 203.083° 200.898°
升交点赤经 311.049° 313.707°
平近点角 299.009° 215.275°
近地点 611.355km 611.599km
远地点 620.077km 619.867km
周期 97.014分钟 97.014分钟
每日圈数 14.843218 14.843165
Detailed Information
固有亮度:
8
最大亮度:
6.7
平衡模式:
三轴稳定
覆盖范围:
全球
运营商:
轨道通信公司
运营商所在国:
美国
使用方式:
暂无
Satellite Introduction
轨道通信FM(Orbcomm FM)是一系列低地球轨道通信卫星,由美国卫星通信公司 Orbcomm运营。 截至2015年12月,已有63颗此类卫星绕地球运行。该卫星已退役。
2D Orbit Map
3D Orbit Map
Orbit Altitude Analysis Chart
Orbit Inclination Analysis Chart
Orbit Comprehensive Analysis Chart
View Comprehensive Chart
Conjunction Data List
Event ID Objects TCA Miss Dist (km) Collision Risk Probability Collision Risk Index (CRI) Action
CDM_260916-022801-626303-306527
2026-09-16T
02:28:31+0000
2.668 km
极远距离
1.421541E-6 低风险 0.38
Miss Distance Evolution Trend with All Objects Subscribe to Flight Safety Assessment
Collision Probability Evolution Trend with All Objects Subscribe to Flight Safety Assessment